RUK1FN EGCC-EGAE

Flight info

Callsign RUK1FN
Flight time 0h 43m
Altitude 24000
Route ASMIM L975 WAL M146 IPSET P6 BELZU
Aircraft B738/M-SDE1E2E3FGIJ1LRWYZ/SB1

Departure

Time 2026-04-21 10:19
Airport Manchester Airport (EGCC)

Arrival

Time 2026-04-21 11:02
Airport City of Derry Airport (EGAE)
Time Latitude Longitude Altitude Speed Heading
2026-04-21 09:53 53.35880 -2.27108 254 ft 0 kts 29°
2026-04-21 10:08 53.35876 -2.27112 254 ft 4 kts 29°
2026-04-21 10:08 53.35852 -2.27134 254 ft 4 kts 29°
2026-04-21 10:08 53.35833 -2.27152 254 ft 4 kts 36°
2026-04-21 10:08 53.35820 -2.27180 254 ft 4 kts 105°
2026-04-21 10:09 53.35835 -2.27209 254 ft 4 kts 153°
2026-04-21 10:09 53.35860 -2.27219 254 ft 4 kts 172°
2026-04-21 10:09 53.35881 -2.27224 254 ft 4 kts 171°
2026-04-21 10:09 53.35908 -2.27230 254 ft 3 kts 172°
2026-04-21 10:10 53.35928 -2.27234 254 ft 3 kts 172°
2026-04-21 10:10 53.35932 -2.27235 254 ft 0 kts 172°
2026-04-21 10:12 53.35929 -2.27234 254 ft 2 kts 172°
2026-04-21 10:12 53.35897 -2.27227 254 ft 8 kts 172°
2026-04-21 10:12 53.35826 -2.27246 254 ft 13 kts 224°
2026-04-21 10:13 53.35762 -2.27376 254 ft 15 kts 231°
2026-04-21 10:13 53.35692 -2.27519 249 ft 18 kts 231°
2026-04-21 10:13 53.35616 -2.27662 243 ft 15 kts 225°
2026-04-21 10:13 53.35534 -2.27795 237 ft 18 kts 224°
2026-04-21 10:14 53.35445 -2.27938 237 ft 18 kts 224°
2026-04-21 10:14 53.35353 -2.28086 237 ft 18 kts 224°
2026-04-21 10:14 53.35256 -2.28252 231 ft 22 kts 229°
2026-04-21 10:14 53.35158 -2.28452 226 ft 24 kts 231°
2026-04-21 10:15 53.35086 -2.28601 228 ft 24 kts 231°
2026-04-21 10:15 53.34969 -2.28820 225 ft 25 kts 226°
2026-04-21 10:15 53.34868 -2.28997 219 ft 20 kts 226°
2026-04-21 10:15 53.34806 -2.29115 216 ft 9 kts 230°
2026-04-21 10:16 53.34779 -2.29170 214 ft 1 kts 230°
2026-04-21 10:16 53.34771 -2.29186 214 ft 3 kts 231°
2026-04-21 10:16 53.34746 -2.29237 215 ft 8 kts 230°
2026-04-21 10:16 53.34700 -2.29308 213 ft 9 kts 214°
2026-04-21 10:17 53.34647 -2.29339 213 ft 8 kts 188°
2026-04-21 10:17 53.34594 -2.29333 214 ft 8 kts 166°
2026-04-21 10:17 53.34549 -2.29291 214 ft 7 kts 136°
2026-04-21 10:17 53.34544 -2.29213 215 ft 7 kts 61°
2026-04-21 10:18 53.34553 -2.29196 215 ft 0 kts 50°
2026-04-21 10:18 53.34569 -2.29164 216 ft 18 kts 50°
2026-04-21 10:18 53.34799 -2.28687 228 ft 85 kts 51°
2026-04-21 10:18 53.35292 -2.27667 240 ft 139 kts 49°
2026-04-21 10:19 53.35997 -2.26328 587 ft 157 kts 50°
2026-04-21 10:19 53.36669 -2.24973 1509 ft 148 kts 53°
2026-04-21 10:19 53.37305 -2.23619 2130 ft 157 kts 55°
2026-04-21 10:19 53.38034 -2.22048 2397 ft 184 kts 52°
2026-04-21 10:20 53.39127 -2.20851 2808 ft 201 kts 15°
2026-04-21 10:20 53.40574 -2.21210 3189 ft 227 kts 335°
2026-04-21 10:20 53.41654 -2.23235 3770 ft 244 kts 298°
2026-04-21 10:20 53.42350 -2.25881 4271 ft 259 kts 298°
2026-04-21 10:21 53.43143 -2.28734 4615 ft 277 kts 298°
2026-04-21 10:21 53.43992 -2.31697 5187 ft 286 kts 299°
2026-04-21 10:21 53.44870 -2.34712 5856 ft 290 kts 299°
2026-04-21 10:21 53.45786 -2.37750 6542 ft 294 kts 299°
2026-04-21 10:22 53.46710 -2.40837 7230 ft 298 kts 297°
2026-04-21 10:22 53.47588 -2.44006 8003 ft 300 kts 296°
2026-04-21 10:22 53.48448 -2.47194 8825 ft 300 kts 295°
2026-04-21 10:22 53.49310 -2.50401 9645 ft 302 kts 295°
2026-04-21 10:23 53.50182 -2.53640 10430 ft 306 kts 295°
2026-04-21 10:23 53.51076 -2.56959 10881 ft 322 kts 295°
2026-04-21 10:23 53.52036 -2.60509 11091 ft 345 kts 295°
2026-04-21 10:23 53.53045 -2.64243 11603 ft 355 kts 295°
2026-04-21 10:24 53.54073 -2.68049 12325 ft 359 kts 295°
2026-04-21 10:24 53.55109 -2.71893 13126 ft 362 kts 295°
2026-04-21 10:24 53.56153 -2.75770 13921 ft 366 kts 295°
2026-04-21 10:24 53.57209 -2.79693 14649 ft 371 kts 294°
2026-04-21 10:25 53.58275 -2.83663 15412 ft 373 kts 294°
2026-04-21 10:25 53.59331 -2.87599 16191 ft 376 kts 294°
2026-04-21 10:25 53.60425 -2.91684 16973 ft 379 kts 294°
2026-04-21 10:25 53.61500 -2.95702 17676 ft 384 kts 294°
2026-04-21 10:26 53.65851 -3.12044 20740 ft 384 kts 294°
2026-04-21 10:27 53.66895 -3.15988 22428 ft 352 kts 295°
2026-04-21 10:27 53.67896 -3.19775 22925 ft 359 kts 295°
2026-04-21 10:27 53.68910 -3.23612 23244 ft 356 kts 294°
2026-04-21 10:27 53.69909 -3.27396 23517 ft 350 kts 294°
2026-04-21 10:28 53.70904 -3.31173 23790 ft 356 kts 294°
2026-04-21 10:28 53.71913 -3.35010 24078 ft 359 kts 294°
2026-04-21 10:28 53.72923 -3.38860 24316 ft 357 kts 294°
2026-04-21 10:28 53.73922 -3.42672 24413 ft 353 kts 294°
2026-04-21 10:29 53.74908 -3.46446 24410 ft 349 kts 294°
2026-04-21 10:29 53.75887 -3.50194 24418 ft 349 kts 294°
2026-04-21 10:29 53.76872 -3.53974 24429 ft 355 kts 294°
2026-04-21 10:29 53.77873 -3.57818 24441 ft 359 kts 294°
2026-04-21 10:30 53.78874 -3.61674 24429 ft 357 kts 294°
2026-04-21 10:30 53.79865 -3.65495 24430 ft 352 kts 294°
2026-04-21 10:30 53.80835 -3.69242 24439 ft 343 kts 294°
2026-04-21 10:30 53.81782 -3.72905 24427 ft 338 kts 294°
2026-04-21 10:31 53.82720 -3.76542 24444 ft 338 kts 294°
2026-04-21 10:31 53.83662 -3.80199 24439 ft 340 kts 294°
2026-04-21 10:31 53.84608 -3.83877 24438 ft 342 kts 294°
2026-04-21 10:31 53.85558 -3.87575 24443 ft 343 kts 294°
2026-04-21 10:32 53.86511 -3.91291 24445 ft 345 kts 294°
2026-04-21 10:32 53.87467 -3.95029 24446 ft 346 kts 294°
2026-04-21 10:32 53.88425 -3.98779 24447 ft 347 kts 294°
2026-04-21 10:32 53.89365 -4.02462 24448 ft 347 kts 294°
2026-04-21 10:33 53.90320 -4.06213 24433 ft 347 kts 294°
2026-04-21 10:33 53.91259 -4.09908 24446 ft 345 kts 293°
2026-04-21 10:33 53.92218 -4.13686 24436 ft 344 kts 293°
2026-04-21 10:33 53.93150 -4.17366 24433 ft 347 kts 293°
2026-04-21 10:34 53.94128 -4.21231 24458 ft 354 kts 293°
2026-04-21 10:34 53.95077 -4.24991 24446 ft 348 kts 292°
2026-04-21 10:34 53.96016 -4.28714 24439 ft 339 kts 292°
2026-04-21 10:34 53.96937 -4.32374 24439 ft 337 kts 292°
2026-04-21 10:35 53.97863 -4.36060 24450 ft 343 kts 292°
2026-04-21 10:35 53.98803 -4.39805 24466 ft 346 kts 292°
2026-04-21 10:35 53.99748 -4.43576 24458 ft 346 kts 292°
2026-04-21 10:35 54.00681 -4.47309 24449 ft 341 kts 292°
2026-04-21 10:36 54.01695 -4.50923 24450 ft 338 kts 299°
2026-04-21 10:36 54.02859 -4.54394 24457 ft 339 kts 298°
2026-04-21 10:36 54.03984 -4.57929 24456 ft 340 kts 297°
2026-04-21 10:36 54.05097 -4.61487 24458 ft 341 kts 297°
2026-04-21 10:37 54.06212 -4.65058 24457 ft 342 kts 297°
2026-04-21 10:37 54.07329 -4.68633 24454 ft 343 kts 297°
2026-04-21 10:37 54.08451 -4.72220 24436 ft 344 kts 297°
2026-04-21 10:37 54.09581 -4.75821 24446 ft 345 kts 297°
2026-04-21 10:38 54.10710 -4.79418 24453 ft 344 kts 297°
2026-04-21 10:38 54.11840 -4.83018 24441 ft 344 kts 297°
2026-04-21 10:38 54.12964 -4.86603 24443 ft 342 kts 297°
2026-04-21 10:38 54.14082 -4.90175 24446 ft 341 kts 297°
2026-04-21 10:39 54.15196 -4.93735 24448 ft 340 kts 297°
2026-04-21 10:39 54.16308 -4.97297 24451 ft 340 kts 297°
2026-04-21 10:39 54.17403 -5.00809 24453 ft 342 kts 297°
2026-04-21 10:39 54.18521 -5.04398 24464 ft 344 kts 297°
2026-04-21 10:40 54.19646 -5.08016 24469 ft 346 kts 297°
2026-04-21 10:40 54.20776 -5.11655 24465 ft 348 kts 297°
2026-04-21 10:40 54.21911 -5.15312 24463 ft 349 kts 297°
2026-04-21 10:40 54.23046 -5.18978 24461 ft 349 kts 297°
2026-04-21 10:41 54.24177 -5.22640 24464 ft 348 kts 297°
2026-04-21 10:41 54.25309 -5.26308 24346 ft 350 kts 297°
2026-04-21 10:41 54.26441 -5.29981 24082 ft 347 kts 297°
2026-04-21 10:41 54.27566 -5.33635 23619 ft 347 kts 296°
2026-04-21 10:42 54.28684 -5.37270 23173 ft 345 kts 296°
2026-04-21 10:42 54.29780 -5.40843 22748 ft 342 kts 296°
2026-04-21 10:42 54.30883 -5.44447 22296 ft 341 kts 296°
2026-04-21 10:42 54.31982 -5.48043 21862 ft 341 kts 296°
2026-04-21 10:43 54.33075 -5.51620 21499 ft 338 kts 296°
2026-04-21 10:43 54.34160 -5.55178 21118 ft 337 kts 296°
2026-04-21 10:43 54.35243 -5.58734 20754 ft 337 kts 296°
2026-04-21 10:43 54.36328 -5.62299 20397 ft 338 kts 296°
2026-04-21 10:44 54.37420 -5.65897 20024 ft 345 kts 296°
2026-04-21 10:44 54.38550 -5.69633 19675 ft 362 kts 296°
2026-04-21 10:44 54.39726 -5.73526 19259 ft 371 kts 296°
2026-04-21 10:44 54.40912 -5.77453 18862 ft 370 kts 297°
2026-04-21 10:45 54.42094 -5.81367 18424 ft 368 kts 297°
2026-04-21 10:45 54.43265 -5.85254 18008 ft 366 kts 297°
2026-04-21 10:45 54.44427 -5.89117 17638 ft 362 kts 297°
2026-04-21 10:45 54.45579 -5.92952 17253 ft 360 kts 296°
2026-04-21 10:46 54.46718 -5.96752 16890 ft 356 kts 296°
2026-04-21 10:46 54.47828 -6.00461 16520 ft 354 kts 296°
2026-04-21 10:46 54.48949 -6.04215 16159 ft 352 kts 296°
2026-04-21 10:46 54.50062 -6.07947 15796 ft 350 kts 296°
2026-04-21 10:47 54.51170 -6.11665 15416 ft 348 kts 296°
2026-04-21 10:47 54.52269 -6.15363 15059 ft 346 kts 296°
2026-04-21 10:47 54.53363 -6.19051 14700 ft 345 kts 296°
2026-04-21 10:47 54.54449 -6.22715 14349 ft 343 kts 296°
2026-04-21 10:48 54.55532 -6.26373 13962 ft 342 kts 296°
2026-04-21 10:48 54.56606 -6.30009 13586 ft 340 kts 296°
2026-04-21 10:48 54.57676 -6.33638 13228 ft 339 kts 296°
2026-04-21 10:48 54.58742 -6.37255 12851 ft 337 kts 296°
2026-04-21 10:49 54.59798 -6.40846 12521 ft 335 kts 296°
2026-04-21 10:49 54.60850 -6.44429 12069 ft 336 kts 296°
2026-04-21 10:49 54.61907 -6.48036 11666 ft 336 kts 297°
2026-04-21 10:49 54.62956 -6.51620 11347 ft 334 kts 297°
2026-04-21 10:50 54.63985 -6.55138 11025 ft 332 kts 297°
2026-04-21 10:50 54.65021 -6.58690 10943 ft 321 kts 297°
2026-04-21 10:50 54.66009 -6.62080 10857 ft 311 kts 297°
2026-04-21 10:50 54.66959 -6.65344 10666 ft 306 kts 297°
2026-04-21 10:51 54.67926 -6.68670 10370 ft 305 kts 297°
2026-04-21 10:51 54.68878 -6.71950 10022 ft 305 kts 297°
2026-04-21 10:51 54.69812 -6.75173 9738 ft 303 kts 297°
2026-04-21 10:51 54.70754 -6.78427 9439 ft 302 kts 297°
2026-04-21 10:52 54.71691 -6.81670 9133 ft 301 kts 297°
2026-04-21 10:52 54.72624 -6.84901 8823 ft 300 kts 297°
2026-04-21 10:52 54.73551 -6.88119 8518 ft 298 kts 297°
2026-04-21 10:52 54.74475 -6.91329 8238 ft 297 kts 297°
2026-04-21 10:53 54.75393 -6.94522 7953 ft 296 kts 297°
2026-04-21 10:53 54.76305 -6.97699 7685 ft 294 kts 297°
2026-04-21 10:53 54.77194 -7.00803 7427 ft 293 kts 297°
2026-04-21 10:53 54.78097 -7.03957 7180 ft 292 kts 297°
2026-04-21 10:54 54.78996 -7.07101 6897 ft 291 kts 298°
2026-04-21 10:54 54.79893 -7.10243 6570 ft 291 kts 297°
2026-04-21 10:54 54.80787 -7.13374 6315 ft 288 kts 297°
2026-04-21 10:54 54.81669 -7.16471 6058 ft 286 kts 298°
2026-04-21 10:55 54.82550 -7.19568 5713 ft 287 kts 298°
2026-04-21 10:55 54.83429 -7.22666 5454 ft 286 kts 298°
2026-04-21 10:55 54.84303 -7.25748 5201 ft 284 kts 298°
2026-04-21 10:55 54.85216 -7.28767 4898 ft 281 kts 307°
2026-04-21 10:56 54.86485 -7.31306 4623 ft 276 kts 316°
2026-04-21 10:56 54.87829 -7.33679 4328 ft 276 kts 317°
2026-04-21 10:56 54.89173 -7.36019 4138 ft 272 kts 317°
2026-04-21 10:56 54.90501 -7.38323 3941 ft 268 kts 318°
2026-04-21 10:57 54.91797 -7.40583 3800 ft 260 kts 318°
2026-04-21 10:57 54.93148 -7.42524 3546 ft 245 kts 336°
2026-04-21 10:57 54.94689 -7.43529 3325 ft 230 kts 349°
2026-04-21 10:57 54.96190 -7.43820 3162 ft 207 kts 16°
2026-04-21 10:58 54.97383 -7.42763 3012 ft 184 kts 45°
2026-04-21 10:58 54.98307 -7.41318 2873 ft 173 kts 47°
2026-04-21 10:58 54.99138 -7.39920 2750 ft 161 kts 57°
2026-04-21 10:58 54.99628 -7.38245 2616 ft 155 kts 70°
2026-04-21 10:59 55.00053 -7.36515 2421 ft 155 kts 71°
2026-04-21 10:59 55.00438 -7.34759 2195 ft 154 kts 72°
2026-04-21 10:59 55.00807 -7.33012 1974 ft 152 kts 73°
2026-04-21 10:59 55.01166 -7.31298 1763 ft 149 kts 72°
2026-04-21 11:00 55.01523 -7.29593 1550 ft 151 kts 72°
2026-04-21 11:00 55.01885 -7.27867 1351 ft 150 kts 73°
2026-04-21 11:00 55.02232 -7.26215 1139 ft 139 kts 73°
2026-04-21 11:00 55.02553 -7.24682 959 ft 135 kts 72°
2026-04-21 11:01 55.02871 -7.23172 742 ft 131 kts 72°
2026-04-21 11:01 55.03214 -7.21705 562 ft 133 kts 69°
2026-04-21 11:01 55.03568 -7.20181 379 ft 134 kts 73°
2026-04-21 11:02 55.04104 -7.17163 38 ft 127 kts 76°
2026-04-21 11:02 55.04312 -7.15941 29 ft 75 kts 73°
2026-04-21 11:02 55.04398 -7.15428 27 ft 13 kts 86°
2026-04-21 11:02 55.04399 -7.15406 27 ft 1 kts 71°
2026-04-21 11:03 55.04404 -7.15405 26 ft 0 kts
2026-04-21 11:03 55.04406 -7.15412 26 ft 0 kts 307°
2026-04-21 11:03 55.04403 -7.15447 27 ft 6 kts 250°
2026-04-21 11:03 55.04380 -7.15559 28 ft 14 kts 251°
2026-04-21 11:04 55.04342 -7.15771 28 ft 20 kts 253°
2026-04-21 11:04 55.04282 -7.15932 29 ft 16 kts 189°
2026-04-21 11:04 55.04172 -7.15908 30 ft 16 kts 167°
2026-04-21 11:04 55.04083 -7.15853 29 ft 10 kts 133°
2026-04-21 11:05 55.04077 -7.15741 30 ft 9 kts 90°
2026-04-21 11:05 55.04043 -7.15687 30 ft 6 kts 165°
2026-04-21 11:05 55.04024 -7.15681 30 ft 1 kts 168°
2026-04-21 11:05 55.04023 -7.15681 30 ft 0 kts 168°